Time,TemperatureF,DewpointF,PressureIn,WindDirection,WindDirectionDegrees,WindSpeedMPH,WindSpeedGustMPH,Humidity,HourlyPrecipIn,Conditions,Clouds,dailyrainin,SoftwareType,DateUTC
2013-11-13 00:04:00,47.7,44.0,30.24,NW,323,0.0,0.0,87,0.00,,,0.00,WUHU216DAVISVP2,2013-11-13 08:04:00,
2013-11-13 00:08:00,47.5,43.8,30.24,NW,323,0.0,0.0,87,0.00,,,0.00,WUHU216DAVISVP2,2013-11-13 08:08:00,
2013-11-13 00:13:00,47.5,43.8,30.24,NW,323,0.0,0.0,87,0.00,,,0.00,WUHU216DAVISVP2,2013-11-13 08:13:00,
2013-11-13 00:18:00,47.4,43.7,30.24,NW,323,0.0,0.0,87,0.00,,,0.00,WUHU216DAVISVP2,2013-11-13 08:18:00,
2013-11-13 00:23:00,47.3,43.6,30.24,NW,323,0.0,1.0,87,0.00,,,0.00,WUHU216DAVISVP2,2013-11-13 08:23:00,
2013-11-13 00:29:00,47.2,43.8,30.24,NW,323,0.0,1.0,88,0.00,,,0.00,WUHU216DAVISVP2,2013-11-13 08:29:00,
2013-11-13 00:34:00,47.1,43.7,30.24,NW,323,0.0,1.0,88,0.00,,,0.00,WUHU216DAVISVP2,2013-11-13 08:34:00,
2013-11-13 00:39:00,47.0,43.6,30.24,NW,323,0.0,0.0,88,0.00,,,0.00,WUHU216DAVISVP2,2013-11-13 08:39:00,
2013-11-13 00:44:00,46.9,43.5,30.24,NW,323,0.0,0.0,88,0.00,,,0.00,WUHU216DAVISVP2,2013-11-13 08:44:00,
2013-11-13 00:49:00,46.8,43.4,30.24,NW,323,0.0,0.0,88,0.00,,,0.00,WUHU216DAVISVP2,2013-11-13 08:49:00,
2013-11-13 00:54:00,46.7,43.3,30.24,NW,323,0.0,0.0,88,0.00,,,0.00,WUHU216DAVISVP2,2013-11-13 08:54:00,
2013-11-13 00:59:00,46.7,43.3,30.24,NW,323,0.0,0.0,88,0.00,,,0.00,WUHU216DAVISVP2,2013-11-13 08:59:00,
2013-11-13 01:04:00,46.6,43.2,30.24,NW,323,0.0,0.0,88,0.00,,,0.00,WUHU216DAVISVP2,2013-11-13 09:04:00,
2013-11-13 01:09:00,46.5,43.1,30.23,NW,323,0.0,0.0,88,0.00,,,0.00,WUHU216DAVISVP2,2013-11-13 09:09:00,
2013-11-13 01:14:00,46.5,43.1,30.23,NW,323,0.0,0.0,88,0.00,,,0.00,WUHU216DAVISVP2,2013-11-13 09:14:00,
2013-11-13 01:19:00,46.4,43.3,30.23,NW,323,0.0,0.0,89,0.00,,,0.00,WUHU216DAVISVP2,2013-11-13 09:19:00,
2013-11-13 01:24:00,46.3,42.9,30.23,NW,323,0.0,0.0,88,0.00,,,0.00,WUHU216DAVISVP2,2013-11-13 09:24:00,
2013-11-13 01:29:00,46.3,42.9,30.23,NW,323,0.0,0.0,88,0.00,,,0.00,WUHU216DAVISVP2,2013-11-13 09:29:00,
2013-11-13 01:34:00,46.2,42.8,30.22,NW,323,0.0,0.0,88,0.00,,,0.00,WUHU216DAVISVP2,2013-11-13 09:34:00,
2013-11-13 01:39:00,46.1,42.7,30.23,NW,323,0.0,0.0,88,0.00,,,0.00,WUHU216DAVISVP2,2013-11-13 09:39:00,
2013-11-13 01:44:00,46.0,43.8,30.23,NW,323,0.0,0.0,92,0.00,,,0.00,WUHU216DAVISVP2,2013-11-13 09:44:00,
2013-11-13 01:49:00,45.9,42.5,30.23,NW,323,0.0,0.0,88,0.00,,,0.00,WUHU216DAVISVP2,2013-11-13 09:49:00,
2013-11-13 01:54:00,45.8,42.4,30.22,NW,323,0.0,0.0,88,0.00,,,0.00,WUHU216DAVISVP2,2013-11-13 09:54:00,
2013-11-13 01:59:00,45.7,42.3,30.23,NW,323,0.0,0.0,88,0.00,,,0.00,WUHU216DAVISVP2,2013-11-13 09:59:00,
2013-11-13 02:04:00,45.6,42.2,30.23,NW,323,0.0,0.0,88,0.00,,,0.00,WUHU216DAVISVP2,2013-11-13 10:04:00,
2013-11-13 02:09:00,45.4,42.0,30.23,NW,323,0.0,0.0,88,0.00,,,0.00,WUHU216DAVISVP2,2013-11-13 10:09:00,
2013-11-13 02:14:00,45.3,41.9,30.23,NW,323,0.0,0.0,88,0.00,,,0.00,WUHU216DAVISVP2,2013-11-13 10:14:00,
2013-11-13 02:19:00,45.2,41.8,30.22,NW,323,0.0,0.0,88,0.00,,,0.00,WUHU216DAVISVP2,2013-11-13 10:19:00,
2013-11-13 02:24:00,45.2,42.1,30.23,NW,323,0.0,0.0,89,0.00,,,0.00,WUHU216DAVISVP2,2013-11-13 10:24:00,
2013-11-13 02:29:00,45.1,42.0,30.22,NW,323,0.0,0.0,89,0.00,,,0.00,WUHU216DAVISVP2,2013-11-13 10:29:00,
2013-11-13 02:34:00,45.1,42.0,30.22,NW,323,0.0,0.0,89,0.00,,,0.00,WUHU216DAVISVP2,2013-11-13 10:34:00,
2013-11-13 02:39:00,45.0,41.9,30.22,NW,323,0.0,0.0,89,0.00,,,0.00,WUHU216DAVISVP2,2013-11-13 10:39:00,
2013-11-13 02:44:00,44.9,41.8,30.22,NW,323,0.0,0.0,89,0.00,,,0.00,WUHU216DAVISVP2,2013-11-13 10:44:00,
2013-11-13 02:49:00,44.8,41.7,30.22,NW,323,0.0,0.0,89,0.00,,,0.00,WUHU216DAVISVP2,2013-11-13 10:49:00,
2013-11-13 02:54:00,44.6,41.5,30.22,NW,323,0.0,0.0,89,0.00,,,0.00,WUHU216DAVISVP2,2013-11-13 10:54:00,
2013-11-13 02:59:00,44.5,41.4,30.22,NW,323,0.0,0.0,89,0.00,,,0.00,WUHU216DAVISVP2,2013-11-13 10:59:00,
2013-11-13 03:04:00,44.4,41.3,30.22,NW,323,0.0,0.0,89,0.00,,,0.00,WUHU216DAVISVP2,2013-11-13 11:04:00,
2013-11-13 03:09:00,44.3,41.2,30.22,NW,323,0.0,0.0,89,0.00,,,0.00,WUHU216DAVISVP2,2013-11-13 11:09:00,
2013-11-13 03:14:00,44.2,41.1,30.22,NW,323,0.0,0.0,89,0.00,,,0.00,WUHU216DAVISVP2,2013-11-13 11:14:00,
2013-11-13 03:19:00,44.2,41.1,30.22,NW,323,0.0,0.0,89,0.00,,,0.00,WUHU216DAVISVP2,2013-11-13 11:19:00,
2013-11-13 03:26:00,44.1,41.3,30.22,NW,323,0.0,0.0,90,0.00,,,0.00,WUHU216DAVISVP2,2013-11-13 11:26:00,
2013-11-13 03:36:00,43.9,40.8,30.21,NW,323,0.0,0.0,89,0.00,,,0.00,WUHU216DAVISVP2,2013-11-13 11:36:00,
2013-11-13 03:41:00,43.7,40.6,30.21,NW,323,0.0,0.0,89,0.00,,,0.00,WUHU216DAVISVP2,2013-11-13 11:41:00,
2013-11-13 03:46:00,43.6,40.5,30.21,NW,323,0.0,0.0,89,0.00,,,0.00,WUHU216DAVISVP2,2013-11-13 11:46:00,
2013-11-13 03:51:00,43.6,40.8,30.21,NW,323,0.0,0.0,90,0.00,,,0.00,WUHU216DAVISVP2,2013-11-13 11:51:00,
2013-11-13 03:56:00,43.4,40.3,30.21,NW,323,0.0,0.0,89,0.00,,,0.00,WUHU216DAVISVP2,2013-11-13 11:56:00,
2013-11-13 04:01:00,43.4,40.6,30.21,NW,323,0.0,0.0,90,0.00,,,0.00,WUHU216DAVISVP2,2013-11-13 12:01:00,
2013-11-13 04:06:00,43.3,40.5,30.21,NW,323,0.0,0.0,90,0.00,,,0.00,WUHU216DAVISVP2,2013-11-13 12:06:00,
2013-11-13 04:11:00,43.3,40.5,30.21,NW,323,0.0,0.0,90,0.00,,,0.00,WUHU216DAVISVP2,2013-11-13 12:11:00,
2013-11-13 04:16:00,43.3,40.5,30.21,NW,323,0.0,0.0,90,0.00,,,0.00,WUHU216DAVISVP2,2013-11-13 12:16:00,
2013-11-13 04:21:00,43.2,40.4,30.21,NW,323,0.0,0.0,90,0.00,,,0.00,WUHU216DAVISVP2,2013-11-13 12:21:00,
2013-11-13 04:26:00,43.1,40.3,30.21,NW,323,0.0,0.0,90,0.00,,,0.00,WUHU216DAVISVP2,2013-11-13 12:26:00,
2013-11-13 04:31:00,43.0,40.2,30.21,NW,323,0.0,0.0,90,0.00,,,0.00,WUHU216DAVISVP2,2013-11-13 12:31:00,
2013-11-13 04:36:00,43.0,40.2,30.21,NW,323,0.0,0.0,90,0.00,,,0.00,WUHU216DAVISVP2,2013-11-13 12:36:00,
2013-11-13 04:41:00,42.9,40.1,30.20,NW,323,0.0,0.0,90,0.00,,,0.00,WUHU216DAVISVP2,2013-11-13 12:41:00,
2013-11-13 04:46:00,42.9,40.1,30.20,NW,323,0.0,0.0,90,0.00,,,0.00,WUHU216DAVISVP2,2013-11-13 12:46:00,
2013-11-13 04:51:00,42.8,40.3,30.20,NW,323,0.0,0.0,91,0.00,,,0.00,WUHU216DAVISVP2,2013-11-13 12:51:00,
2013-11-13 04:56:00,42.7,40.2,30.20,NW,323,0.0,0.0,91,0.00,,,0.00,WUHU216DAVISVP2,2013-11-13 12:56:00,
2013-11-13 05:01:00,42.7,40.2,30.20,NW,323,0.0,0.0,91,0.00,,,0.00,WUHU216DAVISVP2,2013-11-13 13:01:00,
2013-11-13 05:06:00,42.6,40.1,30.20,NW,323,0.0,0.0,91,0.00,,,0.00,WUHU216DAVISVP2,2013-11-13 13:06:00,
2013-11-13 05:11:00,42.6,40.1,30.20,NW,323,0.0,0.0,91,0.00,,,0.00,WUHU216DAVISVP2,2013-11-13 13:11:00,
2013-11-13 05:16:00,42.5,40.0,30.20,NW,323,0.0,0.0,91,0.00,,,0.00,WUHU216DAVISVP2,2013-11-13 13:16:00,
2013-11-13 05:21:00,42.5,40.0,30.20,NW,323,0.0,0.0,91,0.00,,,0.00,WUHU216DAVISVP2,2013-11-13 13:21:00,
2013-11-13 05:26:00,42.6,40.1,30.20,NW,323,0.0,0.0,91,0.00,,,0.00,WUHU216DAVISVP2,2013-11-13 13:26:00,
2013-11-13 05:31:00,42.7,40.2,30.20,NW,323,0.0,0.0,91,0.00,,,0.00,WUHU216DAVISVP2,2013-11-13 13:31:00,
2013-11-13 05:36:00,42.6,40.1,30.21,NW,323,0.0,0.0,91,0.00,,,0.00,WUHU216DAVISVP2,2013-11-13 13:36:00,
2013-11-13 05:41:00,42.5,40.0,30.21,NW,323,0.0,0.0,91,0.00,,,0.00,WUHU216DAVISVP2,2013-11-13 13:41:00,
2013-11-13 05:46:00,42.5,40.0,30.21,NW,323,0.0,0.0,91,0.00,,,0.00,WUHU216DAVISVP2,2013-11-13 13:46:00,
2013-11-13 05:51:00,42.5,40.0,30.21,NW,323,0.0,0.0,91,0.00,,,0.00,WUHU216DAVISVP2,2013-11-13 13:51:00,
2013-11-13 05:56:00,42.4,39.9,30.21,NW,323,0.0,0.0,91,0.00,,,0.00,WUHU216DAVISVP2,2013-11-13 13:56:00,
2013-11-13 06:01:00,42.4,39.9,30.21,NW,323,0.0,0.0,91,0.00,,,0.00,WUHU216DAVISVP2,2013-11-13 14:01:00,
2013-11-13 06:06:00,42.3,39.8,30.21,NW,323,0.0,0.0,91,0.00,,,0.00,WUHU216DAVISVP2,2013-11-13 14:06:00,
2013-11-13 06:11:00,42.3,39.8,30.22,NW,323,0.0,0.0,91,0.00,,,0.00,WUHU216DAVISVP2,2013-11-13 14:11:00,
2013-11-13 06:16:00,42.2,39.8,30.22,NW,323,0.0,0.0,91,0.00,,,0.00,WUHU216DAVISVP2,2013-11-13 14:16:00,
2013-11-13 06:21:00,42.0,39.6,30.21,NW,323,0.0,0.0,91,0.00,,,0.00,WUHU216DAVISVP2,2013-11-13 14:21:00,
2013-11-13 06:26:00,41.9,39.4,30.21,NW,323,0.0,0.0,91,0.00,,,0.00,WUHU216DAVISVP2,2013-11-13 14:26:00,
2013-11-13 06:31:00,41.9,39.4,30.22,NW,323,0.0,0.0,91,0.00,,,0.00,WUHU216DAVISVP2,2013-11-13 14:31:00,
2013-11-13 06:36:00,41.8,39.3,30.22,NW,323,0.0,0.0,91,0.00,,,0.00,WUHU216DAVISVP2,2013-11-13 14:36:00,
2013-11-13 06:41:00,41.7,39.3,30.21,NW,323,1.0,2.0,91,0.00,,,0.00,WUHU216DAVISVP2,2013-11-13 14:41:00,
2013-11-13 06:46:00,41.7,39.3,30.21,NW,323,1.0,2.0,91,0.00,,,0.00,WUHU216DAVISVP2,2013-11-13 14:46:00,
2013-11-13 06:51:00,41.8,39.6,30.21,NW,323,0.0,3.0,92,0.00,,,0.00,WUHU216DAVISVP2,2013-11-13 14:51:00,
2013-11-13 06:56:00,42.1,39.9,30.21,NW,323,1.0,3.0,92,0.00,,,0.00,WUHU216DAVISVP2,2013-11-13 14:56:00,
2013-11-13 07:01:00,42.6,40.7,30.21,NW,323,0.0,3.0,93,0.00,,,0.00,WUHU216DAVISVP2,2013-11-13 15:01:00,
2013-11-13 07:06:00,43.0,41.1,30.21,NW,323,1.0,3.0,93,0.00,,,0.00,WUHU216DAVISVP2,2013-11-13 15:06:00,
2013-11-13 07:11:00,43.5,41.8,30.21,NW,323,2.0,4.0,94,0.00,,,0.00,WUHU216DAVISVP2,2013-11-13 15:11:00,
2013-11-13 07:16:00,43.9,42.2,30.22,NW,323,0.0,4.0,94,0.00,,,0.00,WUHU216DAVISVP2,2013-11-13 15:16:00,
2013-11-13 07:21:00,44.4,42.7,30.22,NW,323,1.0,4.0,94,0.00,,,0.00,WUHU216DAVISVP2,2013-11-13 15:21:00,
2013-11-13 07:26:00,44.7,43.0,30.22,NW,323,0.0,4.0,94,0.00,,,0.00,WUHU216DAVISVP2,2013-11-13 15:26:00,
2013-11-13 07:31:00,45.0,43.3,30.22,NW,323,0.0,3.0,94,0.00,,,0.00,WUHU216DAVISVP2,2013-11-13 15:31:00,
2013-11-13 07:36:00,45.2,43.5,30.22,NW,323,3.0,4.0,94,0.00,,,0.00,WUHU216DAVISVP2,2013-11-13 15:36:00,
2013-11-13 07:41:00,45.6,43.9,30.22,NW,323,0.0,4.0,94,0.00,,,0.00,WUHU216DAVISVP2,2013-11-13 15:41:00,
2013-11-13 07:46:00,45.9,44.5,30.22,NW,323,0.0,3.0,95,0.00,,,0.00,WUHU216DAVISVP2,2013-11-13 15:46:00,
2013-11-13 07:51:00,46.3,44.9,30.22,NW,323,0.0,0.0,95,0.00,,,0.00,WUHU216DAVISVP2,2013-11-13 15:51:00,
2013-11-13 07:56:00,46.7,45.3,30.23,NW,323,0.0,1.0,95,0.00,,,0.00,WUHU216DAVISVP2,2013-11-13 15:56:00,
2013-11-13 08:01:00,47.1,45.7,30.23,NW,323,0.0,2.0,95,0.00,,,0.00,WUHU216DAVISVP2,2013-11-13 16:01:00,
2013-11-13 08:06:00,47.7,46.3,30.23,NW,323,3.0,4.0,95,0.00,,,0.00,WUHU216DAVISVP2,2013-11-13 16:06:00,
2013-11-13 08:11:00,48.2,46.8,30.23,NW,323,0.0,4.0,95,0.00,,,0.00,WUHU216DAVISVP2,2013-11-13 16:11:00,
2013-11-13 08:16:00,48.7,47.3,30.23,NW,323,0.0,2.0,95,0.00,,,0.00,WUHU216DAVISVP2,2013-11-13 16:16:00,
2013-11-13 08:21:00,49.2,47.8,30.23,NW,323,0.0,2.0,95,0.00,,,0.00,WUHU216DAVISVP2,2013-11-13 16:21:00,
2013-11-13 08:26:00,49.9,48.5,30.23,NW,323,1.0,4.0,95,0.00,,,0.00,WUHU216DAVISVP2,2013-11-13 16:26:00,
2013-11-13 08:31:00,50.5,49.1,30.23,NW,323,3.0,4.0,95,0.00,,,0.00,WUHU216DAVISVP2,2013-11-13 16:31:00,
2013-11-13 08:37:00,51.3,49.0,30.23,NW,323,0.0,4.0,92,0.00,,,0.00,WUHU216DAVISVP2,2013-11-13 16:37:00,
2013-11-13 08:42:00,52.0,49.4,30.23,NW,323,2.0,4.0,91,0.00,,,0.00,WUHU216DAVISVP2,2013-11-13 16:42:00,
2013-11-13 08:47:00,52.8,49.0,30.23,NW,323,1.0,3.0,87,0.00,,,0.00,WUHU216DAVISVP2,2013-11-13 16:47:00,
2013-11-13 08:52:00,54.4,49.7,30.23,SSE,165,4.0,7.0,84,0.00,,,0.00,WUHU216DAVISVP2,2013-11-13 16:52:00,
2013-11-13 08:57:00,55.6,49.6,30.22,SSE,165,4.0,7.0,80,0.00,,,0.00,WUHU216DAVISVP2,2013-11-13 16:57:00,
2013-11-13 09:02:00,56.1,49.1,30.22,SSE,165,2.0,5.0,77,0.00,,,0.00,WUHU216DAVISVP2,2013-11-13 17:02:00,
2013-11-13 09:07:00,56.3,49.3,30.22,SSE,165,4.0,5.0,77,0.00,,,0.00,WUHU216DAVISVP2,2013-11-13 17:07:00,
2013-11-13 09:12:00,57.5,49.7,30.23,SSE,165,4.0,5.0,75,0.00,,,0.00,WUHU216DAVISVP2,2013-11-13 17:12:00,
2013-11-13 09:17:00,57.9,49.8,30.23,SSE,165,0.0,5.0,74,0.00,,,0.00,WUHU216DAVISVP2,2013-11-13 17:17:00,
2013-11-13 09:22:00,58.5,49.6,30.23,SSE,165,2.0,5.0,72,0.00,,,0.00,WUHU216DAVISVP2,2013-11-13 17:22:00,
2013-11-13 09:27:00,58.9,49.6,30.23,SSE,165,1.0,5.0,71,0.00,,,0.00,WUHU216DAVISVP2,2013-11-13 17:27:00,
2013-11-13 09:32:00,59.5,49.8,30.23,SSE,165,2.0,4.0,70,0.00,,,0.00,WUHU216DAVISVP2,2013-11-13 17:32:00,
2013-11-13 09:37:00,60.0,49.6,30.23,SSE,165,2.0,4.0,68,0.00,,,0.00,WUHU216DAVISVP2,2013-11-13 17:37:00,
2013-11-13 09:42:00,60.2,49.7,30.23,SSE,165,0.0,4.0,68,0.00,,,0.00,WUHU216DAVISVP2,2013-11-13 17:42:00,
2013-11-13 09:47:00,60.9,50.0,30.24,SSE,165,0.0,4.0,67,0.00,,,0.00,WUHU216DAVISVP2,2013-11-13 17:47:00,
2013-11-13 09:52:00,61.5,50.2,30.24,SSE,165,0.0,1.0,66,0.00,,,0.00,WUHU216DAVISVP2,2013-11-13 17:52:00,
2013-11-13 09:57:00,61.7,49.6,30.24,SSE,165,0.0,1.0,64,0.00,,,0.00,WUHU216DAVISVP2,2013-11-13 17:57:00,
2013-11-13 10:02:00,61.8,50.1,30.24,West,266,1.0,4.0,65,0.00,,,0.00,WUHU216DAVISVP2,2013-11-13 18:02:00,
2013-11-13 10:07:00,62.2,50.0,30.24,West,266,0.0,4.0,64,0.00,,,0.00,WUHU216DAVISVP2,2013-11-13 18:07:00,
2013-11-13 10:12:00,62.3,49.7,30.23,West,266,0.0,3.0,63,0.00,,,0.00,WUHU216DAVISVP2,2013-11-13 18:12:00,
2013-11-13 10:17:00,63.0,49.9,30.23,West,266,0.0,3.0,62,0.00,,,0.00,WUHU216DAVISVP2,2013-11-13 18:17:00,
2013-11-13 10:22:00,63.4,49.9,30.23,West,266,0.0,0.0,61,0.00,,,0.00,WUHU216DAVISVP2,2013-11-13 18:22:00,
2013-11-13 10:27:00,63.5,49.5,30.23,West,266,0.0,2.0,60,0.00,,,0.00,WUHU216DAVISVP2,2013-11-13 18:27:00,
2013-11-13 10:32:00,63.6,49.5,30.23,West,266,0.0,2.0,60,0.00,,,0.00,WUHU216DAVISVP2,2013-11-13 18:32:00,
2013-11-13 10:37:00,64.2,49.6,30.22,West,266,0.0,1.0,59,0.00,,,0.00,WUHU216DAVISVP2,2013-11-13 18:37:00,
2013-11-13 10:42:00,65.0,49.4,30.22,West,266,0.0,1.0,57,0.00,,,0.00,WUHU216DAVISVP2,2013-11-13 18:42:00,
2013-11-13 10:47:00,64.4,49.9,30.22,West,266,0.0,1.0,59,0.00,,,0.00,WUHU216DAVISVP2,2013-11-13 18:47:00,
2013-11-13 10:52:00,64.8,49.8,30.22,West,266,0.0,2.0,58,0.00,,,0.00,WUHU216DAVISVP2,2013-11-13 18:52:00,
2013-11-13 10:57:00,65.4,49.4,30.22,NW,315,3.0,4.0,56,0.00,,,0.00,WUHU216DAVISVP2,2013-11-13 18:57:00,
2013-11-13 11:02:00,65.2,48.7,30.21,WNW,300,5.0,7.0,55,0.00,,,0.00,WUHU216DAVISVP2,2013-11-13 19:02:00,
2013-11-13 11:07:00,65.6,49.6,30.21,NNW,336,4.0,7.0,56,0.00,,,0.00,WUHU216DAVISVP2,2013-11-13 19:07:00,
2013-11-13 11:12:00,66.2,49.1,30.20,NNW,337,1.0,7.0,54,0.00,,,0.00,WUHU216DAVISVP2,2013-11-13 19:12:00,
2013-11-13 11:17:00,66.3,49.2,30.20,NNW,337,2.0,6.0,54,0.00,,,0.00,WUHU216DAVISVP2,2013-11-13 19:17:00,
2013-11-13 11:22:00,66.8,49.7,30.20,NNW,338,3.0,6.0,54,0.00,,,0.00,WUHU216DAVISVP2,2013-11-13 19:22:00,
2013-11-13 11:27:00,66.3,48.2,30.20,NW,325,0.0,6.0,52,0.00,,,0.00,WUHU216DAVISVP2,2013-11-13 19:27:00,
2013-11-13 11:32:00,66.6,49.5,30.20,NNW,327,5.0,6.0,54,0.00,,,0.00,WUHU216DAVISVP2,2013-11-13 19:32:00,
2013-11-13 11:37:00,66.2,49.2,30.19,NNW,340,0.0,8.0,54,0.00,,,0.00,WUHU216DAVISVP2,2013-11-13 19:37:00,
2013-11-13 11:42:00,67.1,49.0,30.19,NNW,328,3.0,8.0,52,0.00,,,0.00,WUHU216DAVISVP2,2013-11-13 19:42:00,
2013-11-13 11:47:00,67.9,49.7,30.19,NW,315,0.0,6.0,52,0.00,,,0.00,WUHU216DAVISVP2,2013-11-13 19:47:00,
2013-11-13 11:52:00,68.0,48.1,30.18,NW,309,4.0,7.0,49,0.00,,,0.00,WUHU216DAVISVP2,2013-11-13 19:52:00,
2013-11-13 11:57:00,67.8,48.5,30.18,WNW,300,4.0,7.0,50,0.00,,,0.00,WUHU216DAVISVP2,2013-11-13 19:57:00,
2013-11-13 12:02:00,67.9,48.6,30.18,WNW,293,0.0,7.0,50,0.00,,,0.00,WUHU216DAVISVP2,2013-11-13 20:02:00,
2013-11-13 12:07:00,68.3,47.3,30.17,WNW,300,2.0,9.0,47,0.00,,,0.00,WUHU216DAVISVP2,2013-11-13 20:07:00,
2013-11-13 12:12:00,68.0,47.0,30.17,WNW,297,4.0,9.0,47,0.00,,,0.00,WUHU216DAVISVP2,2013-11-13 20:12:00,
2013-11-13 12:17:00,68.4,46.8,30.17,West,275,3.0,7.0,46,0.00,,,0.00,WUHU216DAVISVP2,2013-11-13 20:17:00,
2013-11-13 12:22:00,68.6,47.6,30.16,WNW,287,0.0,7.0,47,0.00,,,0.00,WUHU216DAVISVP2,2013-11-13 20:22:00,
2013-11-13 12:27:00,69.1,48.0,30.16,WNW,302,4.0,6.0,47,0.00,,,0.00,WUHU216DAVISVP2,2013-11-13 20:27:00,
2013-11-13 12:32:00,69.7,49.1,30.15,NW,313,0.0,6.0,48,0.00,,,0.00,WUHU216DAVISVP2,2013-11-13 20:32:00,
2013-11-13 12:37:00,69.4,47.7,30.15,West,271,1.0,8.0,46,0.00,,,0.00,WUHU216DAVISVP2,2013-11-13 20:37:00,
2013-11-13 12:42:00,69.6,47.9,30.14,West,271,0.0,8.0,46,0.00,,,0.00,WUHU216DAVISVP2,2013-11-13 20:42:00,
2013-11-13 12:47:00,70.4,48.0,30.14,East,87,0.0,1.0,45,0.00,,,0.00,WUHU216DAVISVP2,2013-11-13 20:47:00,
2013-11-13 12:52:00,70.0,46.5,30.13,NNW,327,1.0,4.0,43,0.00,,,0.00,WUHU216DAVISVP2,2013-11-13 20:52:00,
2013-11-13 12:57:00,69.2,46.4,30.13,NNW,327,0.0,4.0,44,0.00,,,0.00,WUHU216DAVISVP2,2013-11-13 20:57:00,
2013-11-13 13:02:00,69.9,46.9,30.12,NNW,327,0.0,1.0,44,0.00,,,0.00,WUHU216DAVISVP2,2013-11-13 21:02:00,
2013-11-13 13:07:00,69.9,46.9,30.12,NNW,327,0.0,1.0,44,0.00,,,0.00,WUHU216DAVISVP2,2013-11-13 21:07:00,
2013-11-13 13:12:00,70.3,47.3,30.12,NNW,327,0.0,4.0,44,0.00,,,0.00,WUHU216DAVISVP2,2013-11-13 21:12:00,
2013-11-13 13:17:00,70.0,47.0,30.12,NNW,327,0.0,5.0,44,0.00,,,0.00,WUHU216DAVISVP2,2013-11-13 21:17:00,
2013-11-13 13:22:00,70.2,46.6,30.12,NNW,329,3.0,5.0,43,0.00,,,0.00,WUHU216DAVISVP2,2013-11-13 21:22:00,
2013-11-13 13:27:00,70.0,46.4,30.12,NNW,329,0.0,4.0,43,0.00,,,0.00,WUHU216DAVISVP2,2013-11-13 21:27:00,
2013-11-13 13:32:00,70.4,47.4,30.12,NNW,327,0.0,3.0,44,0.00,,,0.00,WUHU216DAVISVP2,2013-11-13 21:32:00,
2013-11-13 13:37:00,70.1,46.5,30.12,NNW,327,0.0,0.0,43,0.00,,,0.00,WUHU216DAVISVP2,2013-11-13 21:37:00,
2013-11-13 13:42:00,71.0,46.7,30.12,NNW,327,0.0,0.0,42,0.00,,,0.00,WUHU216DAVISVP2,2013-11-13 21:42:00,
2013-11-13 13:47:00,71.2,46.2,30.11,NNW,327,0.0,0.0,41,0.00,,,0.00,WUHU216DAVISVP2,2013-11-13 21:47:00,
2013-11-13 13:52:00,70.7,45.8,30.11,NNW,327,0.0,0.0,41,0.00,,,0.00,WUHU216DAVISVP2,2013-11-13 21:52:00,
2013-11-13 13:57:00,71.6,46.6,30.11,NNW,327,0.0,0.0,41,0.00,,,0.00,WUHU216DAVISVP2,2013-11-13 21:57:00,
2013-11-13 14:02:00,71.6,46.6,30.11,NNW,327,0.0,3.0,41,0.00,,,0.00,WUHU216DAVISVP2,2013-11-13 22:02:00,
2013-11-13 14:07:00,71.3,46.4,30.11,NNW,327,0.0,3.0,41,0.00,,,0.00,WUHU216DAVISVP2,2013-11-13 22:07:00,
2013-11-13 14:12:00,71.8,46.8,30.11,NNE,28,0.0,4.0,41,0.00,,,0.00,WUHU216DAVISVP2,2013-11-13 22:12:00,
2013-11-13 14:17:00,71.1,46.2,30.10,WNW,296,0.0,4.0,41,0.00,,,0.00,WUHU216DAVISVP2,2013-11-13 22:17:00,
2013-11-13 14:22:00,71.0,46.7,30.10,WNW,296,0.0,4.0,42,0.00,,,0.00,WUHU216DAVISVP2,2013-11-13 22:22:00,
2013-11-13 14:27:00,70.9,46.6,30.10,WNW,296,3.0,3.0,42,0.00,,,0.00,WUHU216DAVISVP2,2013-11-13 22:27:00,
2013-11-13 14:32:00,71.0,46.7,30.10,NW,324,2.0,7.0,42,0.00,,,0.00,WUHU216DAVISVP2,2013-11-13 22:32:00,
2013-11-13 14:37:00,70.7,45.7,30.10,NW,324,0.0,7.0,41,0.00,,,0.00,WUHU216DAVISVP2,2013-11-13 22:37:00,
2013-11-13 14:42:00,70.8,45.8,30.10,NW,324,0.0,1.0,41,0.00,,,0.00,WUHU216DAVISVP2,2013-11-13 22:42:00,
2013-11-13 14:47:00,71.3,46.3,30.10,NW,324,0.0,1.0,41,0.00,,,0.00,WUHU216DAVISVP2,2013-11-13 22:47:00,
2013-11-13 14:52:00,71.1,45.4,30.09,NW,324,0.0,0.0,40,0.00,,,0.00,WUHU216DAVISVP2,2013-11-13 22:52:00,
2013-11-13 14:57:00,70.9,45.9,30.09,NW,324,0.0,1.0,41,0.00,,,0.00,WUHU216DAVISVP2,2013-11-13 22:57:00,
2013-11-13 15:02:00,70.7,46.4,30.09,NW,324,0.0,1.0,42,0.00,,,0.00,WUHU216DAVISVP2,2013-11-13 23:02:00,
2013-11-13 15:07:00,70.7,45.7,30.09,NW,324,0.0,0.0,41,0.00,,,0.00,WUHU216DAVISVP2,2013-11-13 23:07:00,
2013-11-13 15:12:00,70.5,45.6,30.09,NW,324,1.0,1.0,41,0.00,,,0.00,WUHU216DAVISVP2,2013-11-13 23:12:00,
2013-11-13 15:17:00,70.4,45.5,30.09,NW,324,5.0,6.0,41,0.00,,,0.00,WUHU216DAVISVP2,2013-11-13 23:17:00,
2013-11-13 15:22:00,70.3,45.4,30.09,NW,324,0.0,6.0,41,0.00,,,0.00,WUHU216DAVISVP2,2013-11-13 23:22:00,
2013-11-13 15:27:00,70.2,45.3,30.09,NW,324,0.0,6.0,41,0.00,,,0.00,WUHU216DAVISVP2,2013-11-13 23:27:00,
2013-11-13 15:32:00,70.1,45.2,30.09,NW,324,0.0,1.0,41,0.00,,,0.00,WUHU216DAVISVP2,2013-11-13 23:32:00,
2013-11-13 15:37:00,70.1,45.9,30.09,NW,324,3.0,4.0,42,0.00,,,0.00,WUHU216DAVISVP2,2013-11-13 23:37:00,
2013-11-13 15:42:00,69.9,45.7,30.09,NW,324,0.0,5.0,42,0.00,,,0.00,WUHU216DAVISVP2,2013-11-13 23:42:00,
2013-11-13 15:47:00,69.7,45.5,30.09,NW,324,0.0,4.0,42,0.00,,,0.00,WUHU216DAVISVP2,2013-11-13 23:47:00,
2013-11-13 15:52:00,69.4,45.9,30.09,NW,324,0.0,5.0,43,0.00,,,0.00,WUHU216DAVISVP2,2013-11-13 23:52:00,
2013-11-13 15:57:00,69.2,45.7,30.09,NW,324,0.0,5.0,43,0.00,,,0.00,WUHU216DAVISVP2,2013-11-13 23:57:00,
2013-11-13 16:02:00,69.0,45.5,30.10,NW,324,0.0,3.0,43,0.00,,,0.00,WUHU216DAVISVP2,2013-11-14 00:02:00,
2013-11-13 16:07:00,69.0,45.5,30.10,NW,324,0.0,4.0,43,0.00,,,0.00,WUHU216DAVISVP2,2013-11-14 00:07:00,
2013-11-13 16:12:00,68.8,45.3,30.10,NW,324,0.0,4.0,43,0.00,,,0.00,WUHU216DAVISVP2,2013-11-14 00:12:00,
2013-11-13 16:17:00,68.6,45.8,30.10,NW,324,2.0,2.0,44,0.00,,,0.00,WUHU216DAVISVP2,2013-11-14 00:17:00,
2013-11-13 16:22:00,68.4,46.2,30.10,NW,324,0.0,2.0,45,0.00,,,0.00,WUHU216DAVISVP2,2013-11-14 00:22:00,
2013-11-13 16:27:00,68.1,46.5,30.10,NW,324,0.0,2.0,46,0.00,,,0.00,WUHU216DAVISVP2,2013-11-14 00:27:00,
2013-11-13 16:32:00,67.4,46.5,30.10,NW,324,0.0,1.0,47,0.00,,,0.00,WUHU216DAVISVP2,2013-11-14 00:32:00,
2013-11-13 16:37:00,66.8,45.9,30.10,NW,324,0.0,1.0,47,0.00,,,0.00,WUHU216DAVISVP2,2013-11-14 00:37:00,
2013-11-13 16:42:00,66.3,46.0,30.10,NW,324,0.0,0.0,48,0.00,,,0.00,WUHU216DAVISVP2,2013-11-14 00:42:00,
2013-11-13 16:47:00,65.5,45.8,30.10,NW,324,0.0,0.0,49,0.00,,,0.00,WUHU216DAVISVP2,2013-11-14 00:47:00,
2013-11-13 16:52:00,64.8,46.3,30.10,NW,324,0.0,0.0,51,0.00,,,0.00,WUHU216DAVISVP2,2013-11-14 00:52:00,
2013-11-13 16:57:00,64.3,46.4,30.10,NW,324,0.0,0.0,52,0.00,,,0.00,WUHU216DAVISVP2,2013-11-14 00:57:00,
2013-11-13 17:02:00,63.5,46.1,30.10,NW,324,0.0,0.0,53,0.00,,,0.00,WUHU216DAVISVP2,2013-11-14 01:02:00,
2013-11-13 17:07:00,63.0,46.2,30.10,NW,324,0.0,0.0,54,0.00,,,0.00,WUHU216DAVISVP2,2013-11-14 01:07:00,
2013-11-13 17:12:00,62.6,46.3,30.10,NW,324,0.0,0.0,55,0.00,,,0.00,WUHU216DAVISVP2,2013-11-14 01:12:00,
2013-11-13 17:17:00,61.9,46.6,30.10,NW,324,0.0,0.0,57,0.00,,,0.00,WUHU216DAVISVP2,2013-11-14 01:17:00,
2013-11-13 17:22:00,61.3,47.0,30.10,NW,324,0.0,0.0,59,0.00,,,0.00,WUHU216DAVISVP2,2013-11-14 01:22:00,
2013-11-13 17:27:00,60.7,46.9,30.10,NW,324,0.0,0.0,60,0.00,,,0.00,WUHU216DAVISVP2,2013-11-14 01:27:00,
2013-11-13 17:32:00,60.0,46.6,30.11,NW,324,0.0,1.0,61,0.00,,,0.00,WUHU216DAVISVP2,2013-11-14 01:32:00,
2013-11-13 17:37:00,59.6,47.1,30.11,NW,324,0.0,1.0,63,0.00,,,0.00,WUHU216DAVISVP2,2013-11-14 01:37:00,
2013-11-13 17:42:00,59.5,47.0,30.11,NW,324,0.0,1.0,63,0.00,,,0.00,WUHU216DAVISVP2,2013-11-14 01:42:00,
2013-11-13 17:47:00,59.2,47.2,30.11,NW,324,0.0,1.0,64,0.00,,,0.00,WUHU216DAVISVP2,2013-11-14 01:47:00,
2013-11-13 17:52:00,58.9,46.9,30.10,NW,324,0.0,0.0,64,0.00,,,0.00,WUHU216DAVISVP2,2013-11-14 01:52:00,
2013-11-13 17:57:00,58.6,47.0,30.10,NW,324,0.0,0.0,65,0.00,,,0.00,WUHU216DAVISVP2,2013-11-14 01:57:00,
2013-11-13 18:02:00,58.3,47.1,30.10,NW,324,0.0,0.0,66,0.00,,,0.00,WUHU216DAVISVP2,2013-11-14 02:02:00,
2013-11-13 18:07:00,58.0,46.8,30.10,NW,324,0.0,0.0,66,0.00,,,0.00,WUHU216DAVISVP2,2013-11-14 02:07:00,
2013-11-13 18:12:00,57.6,46.9,30.11,NW,324,0.0,0.0,67,0.00,,,0.00,WUHU216DAVISVP2,2013-11-14 02:12:00,
2013-11-13 18:17:00,57.3,46.6,30.11,NW,324,0.0,0.0,67,0.00,,,0.00,WUHU216DAVISVP2,2013-11-14 02:17:00,
2013-11-13 18:22:00,56.8,46.5,30.11,NW,324,0.0,0.0,68,0.00,,,0.00,WUHU216DAVISVP2,2013-11-14 02:22:00,
2013-11-13 18:27:00,56.3,46.0,30.11,NW,324,0.0,0.0,68,0.00,,,0.00,WUHU216DAVISVP2,2013-11-14 02:27:00,
2013-11-13 18:32:00,56.0,46.1,30.11,NW,324,0.0,0.0,69,0.00,,,0.00,WUHU216DAVISVP2,2013-11-14 02:32:00,
2013-11-13 18:37:00,55.9,46.0,30.11,NW,324,0.0,0.0,69,0.00,,,0.00,WUHU216DAVISVP2,2013-11-14 02:37:00,
2013-11-13 18:42:00,55.8,45.1,30.11,NW,324,0.0,0.0,67,0.00,,,0.00,WUHU216DAVISVP2,2013-11-14 02:42:00,
2013-11-13 18:47:00,55.6,45.3,30.11,NW,324,0.0,0.0,68,0.00,,,0.00,WUHU216DAVISVP2,2013-11-14 02:47:00,
2013-11-13 18:52:00,55.6,45.7,30.10,NW,324,0.0,0.0,69,0.00,,,0.00,WUHU216DAVISVP2,2013-11-14 02:52:00,
2013-11-13 18:57:00,55.3,45.8,30.11,NW,324,0.0,0.0,70,0.00,,,0.00,WUHU216DAVISVP2,2013-11-14 02:57:00,
2013-11-13 19:02:00,54.9,46.2,30.11,NW,324,0.0,0.0,72,0.00,,,0.00,WUHU216DAVISVP2,2013-11-14 03:02:00,
2013-11-13 19:07:00,54.5,45.8,30.10,NW,324,0.0,0.0,72,0.00,,,0.00,WUHU216DAVISVP2,2013-11-14 03:07:00,
2013-11-13 19:12:00,54.2,45.8,30.10,NW,324,0.0,0.0,73,0.00,,,0.00,WUHU216DAVISVP2,2013-11-14 03:12:00,
2013-11-13 19:17:00,53.9,45.5,30.10,NW,324,0.0,0.0,73,0.00,,,0.00,WUHU216DAVISVP2,2013-11-14 03:17:00,
2013-11-13 19:22:00,53.8,45.8,30.10,NW,324,0.0,0.0,74,0.00,,,0.00,WUHU216DAVISVP2,2013-11-14 03:22:00,
2013-11-13 19:27:00,53.4,45.8,30.10,NW,324,0.0,0.0,75,0.00,,,0.00,WUHU216DAVISVP2,2013-11-14 03:27:00,
2013-11-13 19:32:00,53.2,45.9,30.10,NW,324,0.0,0.0,76,0.00,,,0.00,WUHU216DAVISVP2,2013-11-14 03:32:00,
2013-11-13 19:37:00,53.1,45.5,30.10,NW,324,0.0,0.0,75,0.00,,,0.00,WUHU216DAVISVP2,2013-11-14 03:37:00,
2013-11-13 19:42:00,53.1,45.8,30.10,NW,324,0.0,0.0,76,0.00,,,0.00,WUHU216DAVISVP2,2013-11-14 03:42:00,
2013-11-13 19:47:00,52.8,44.8,30.10,NW,324,0.0,0.0,74,0.00,,,0.00,WUHU216DAVISVP2,2013-11-14 03:47:00,
2013-11-13 19:52:00,52.2,44.9,30.10,NW,324,0.0,0.0,76,0.00,,,0.00,WUHU216DAVISVP2,2013-11-14 03:52:00,
2013-11-13 19:57:00,51.9,45.0,30.10,NW,324,0.0,0.0,77,0.00,,,0.00,WUHU216DAVISVP2,2013-11-14 03:57:00,
2013-11-13 20:02:00,51.7,45.4,30.09,NW,324,0.0,0.0,79,0.00,,,0.00,WUHU216DAVISVP2,2013-11-14 04:02:00,
2013-11-13 20:07:00,51.6,45.3,30.10,NW,324,0.0,0.0,79,0.00,,,0.00,WUHU216DAVISVP2,2013-11-14 04:07:00,
2013-11-13 20:12:00,51.4,45.2,30.10,NW,324,0.0,0.0,79,0.00,,,0.00,WUHU216DAVISVP2,2013-11-14 04:12:00,
2013-11-13 20:17:00,51.2,44.9,30.10,NW,324,0.0,0.0,79,0.00,,,0.00,WUHU216DAVISVP2,2013-11-14 04:17:00,
2013-11-13 20:22:00,51.1,44.8,30.10,NW,324,0.0,0.0,79,0.00,,,0.00,WUHU216DAVISVP2,2013-11-14 04:22:00,
2013-11-13 20:27:00,51.1,45.1,30.10,NW,324,0.0,0.0,80,0.00,,,0.00,WUHU216DAVISVP2,2013-11-14 04:27:00,
2013-11-13 20:32:00,51.0,45.0,30.10,NW,324,0.0,0.0,80,0.00,,,0.00,WUHU216DAVISVP2,2013-11-14 04:32:00,
2013-11-13 20:37:00,51.0,45.1,30.10,NW,324,0.0,0.0,80,0.00,,,0.00,WUHU216DAVISVP2,2013-11-14 04:37:00,
2013-11-13 20:42:00,50.9,45.0,30.11,NW,324,0.0,0.0,80,0.00,,,0.00,WUHU216DAVISVP2,2013-11-14 04:42:00,
2013-11-13 20:47:00,50.8,44.9,30.11,NW,324,0.0,0.0,80,0.00,,,0.00,WUHU216DAVISVP2,2013-11-14 04:47:00,
2013-11-13 20:52:00,50.6,44.7,30.11,NW,324,0.0,0.0,80,0.00,,,0.00,WUHU216DAVISVP2,2013-11-14 04:52:00,
2013-11-13 20:57:00,50.3,44.4,30.11,NW,324,0.0,0.0,80,0.00,,,0.00,WUHU216DAVISVP2,2013-11-14 04:57:00,
2013-11-13 21:02:00,50.1,44.5,30.10,NW,324,0.0,0.0,81,0.00,,,0.00,WUHU216DAVISVP2,2013-11-14 05:02:00,
2013-11-13 21:07:00,50.0,44.4,30.10,NW,324,0.0,2.0,81,0.00,,,0.00,WUHU216DAVISVP2,2013-11-14 05:07:00,
2013-11-13 21:12:00,49.9,44.3,30.10,NW,324,0.0,2.0,81,0.00,,,0.00,WUHU216DAVISVP2,2013-11-14 05:12:00,
2013-11-13 21:17:00,49.6,44.3,30.10,NW,324,0.0,0.0,82,0.00,,,0.00,WUHU216DAVISVP2,2013-11-14 05:17:00,
2013-11-13 21:22:00,49.5,44.2,30.10,NW,324,0.0,0.0,82,0.00,,,0.00,WUHU216DAVISVP2,2013-11-14 05:22:00,
2013-11-13 21:27:00,49.4,44.2,30.09,NW,324,0.0,0.0,82,0.00,,,0.00,WUHU216DAVISVP2,2013-11-14 05:27:00,
2013-11-13 21:32:00,49.2,44.3,30.09,NW,324,0.0,0.0,83,0.00,,,0.00,WUHU216DAVISVP2,2013-11-14 05:32:00,
2013-11-13 21:37:00,49.0,43.8,30.09,NW,324,0.0,0.0,82,0.00,,,0.00,WUHU216DAVISVP2,2013-11-14 05:37:00,
2013-11-13 21:42:00,48.9,43.7,30.09,NW,324,0.0,0.0,82,0.00,,,0.00,WUHU216DAVISVP2,2013-11-14 05:42:00,
2013-11-13 21:47:00,49.0,44.1,30.09,NW,324,0.0,0.0,83,0.00,,,0.00,WUHU216DAVISVP2,2013-11-14 05:47:00,
2013-11-13 21:52:00,48.9,44.0,30.09,NW,324,0.0,0.0,83,0.00,,,0.00,WUHU216DAVISVP2,2013-11-14 05:52:00,
2013-11-13 21:57:00,48.8,43.9,30.09,NW,324,0.0,1.0,83,0.00,,,0.00,WUHU216DAVISVP2,2013-11-14 05:57:00,
2013-11-13 22:02:00,48.8,43.9,30.09,NW,324,0.0,1.0,83,0.00,,,0.00,WUHU216DAVISVP2,2013-11-14 06:02:00,
2013-11-13 22:07:00,48.8,43.9,30.10,NW,324,0.0,0.0,83,0.00,,,0.00,WUHU216DAVISVP2,2013-11-14 06:07:00,
2013-11-13 22:12:00,48.7,44.1,30.10,NW,324,0.0,0.0,84,0.00,,,0.00,WUHU216DAVISVP2,2013-11-14 06:12:00,
2013-11-13 22:17:00,48.6,44.0,30.10,NW,324,0.0,0.0,84,0.00,,,0.00,WUHU216DAVISVP2,2013-11-14 06:17:00,
2013-11-13 22:22:00,48.5,43.9,30.10,NW,324,0.0,0.0,84,0.00,,,0.00,WUHU216DAVISVP2,2013-11-14 06:22:00,
2013-11-13 22:27:00,48.5,44.2,30.10,NW,324,0.0,0.0,85,0.00,,,0.00,WUHU216DAVISVP2,2013-11-14 06:27:00,
2013-11-13 22:32:00,48.5,44.2,30.10,NW,324,0.0,0.0,85,0.00,,,0.00,WUHU216DAVISVP2,2013-11-14 06:32:00,
2013-11-13 22:37:00,48.6,44.3,30.10,NW,324,0.0,0.0,85,0.00,,,0.00,WUHU216DAVISVP2,2013-11-14 06:37:00,
2013-11-13 22:42:00,48.6,44.3,30.11,NW,324,0.0,0.0,85,0.00,,,0.00,WUHU216DAVISVP2,2013-11-14 06:42:00,
2013-11-13 22:47:00,48.4,43.8,30.10,NW,324,0.0,0.0,84,0.00,,,0.00,WUHU216DAVISVP2,2013-11-14 06:47:00,
2013-11-13 22:52:00,48.3,44.0,30.10,NW,324,0.0,0.0,85,0.00,,,0.00,WUHU216DAVISVP2,2013-11-14 06:52:00,
2013-11-13 22:57:00,48.1,43.8,30.10,NW,324,0.0,0.0,85,0.00,,,0.00,WUHU216DAVISVP2,2013-11-14 06:57:00,
2013-11-13 23:02:00,48.0,43.4,30.10,NW,324,0.0,0.0,84,0.00,,,0.00,WUHU216DAVISVP2,2013-11-14 07:02:00,
2013-11-13 23:07:00,47.9,43.3,30.09,NW,324,0.0,0.0,84,0.00,,,0.00,WUHU216DAVISVP2,2013-11-14 07:07:00,
2013-11-13 23:12:00,47.8,43.5,30.10,NW,324,0.0,0.0,85,0.00,,,0.00,WUHU216DAVISVP2,2013-11-14 07:12:00,
2013-11-13 23:17:00,47.5,42.9,30.10,NW,324,0.0,0.0,84,0.00,,,0.00,WUHU216DAVISVP2,2013-11-14 07:17:00,
2013-11-13 23:22:00,47.4,43.1,30.10,NW,324,0.0,0.0,85,0.00,,,0.00,WUHU216DAVISVP2,2013-11-14 07:22:00,
2013-11-13 23:27:00,47.2,42.9,30.10,NW,324,0.0,0.0,85,0.00,,,0.00,WUHU216DAVISVP2,2013-11-14 07:27:00,
2013-11-13 23:32:00,46.9,42.6,30.10,NW,324,0.0,0.0,85,0.00,,,0.00,WUHU216DAVISVP2,2013-11-14 07:32:00,
2013-11-13 23:37:00,46.7,42.7,30.10,NW,324,0.0,0.0,86,0.00,,,0.00,WUHU216DAVISVP2,2013-11-14 07:37:00,
2013-11-13 23:42:00,46.7,42.7,30.09,NW,324,0.0,0.0,86,0.00,,,0.00,WUHU216DAVISVP2,2013-11-14 07:42:00,
2013-11-13 23:47:00,46.6,42.6,30.09,NW,324,0.0,0.0,86,0.00,,,0.00,WUHU216DAVISVP2,2013-11-14 07:47:00,
2013-11-13 23:52:00,46.5,42.8,30.09,NW,324,0.0,0.0,87,0.00,,,0.00,WUHU216DAVISVP2,2013-11-14 07:52:00,
2013-11-13 23:57:00,46.5,42.8,30.10,NW,324,0.0,0.0,87,0.00,,,0.00,WUHU216DAVISVP2,2013-11-14 07:57:00,